📊 Raw Sensor Data

Showing records 44826 to 44850 of 85,042 total

ID Distance (ft) Battery V Battery A Int Temp (°F) Int Humid (%) Ext Temp (°F) Solar V RSSI SNR Time Stamp
40229 16.4 3.99 5 85 53 80 4.50 -70 8 05/10/2025 07:30 PM
40228 -- 4.00 8 88 53 82 4.50 -68 8 05/10/2025 07:15 PM
40227 -- 4.02 -8 91 52 84 4.50 -71 8 05/10/2025 07:00 PM
40226 -- 3.99 26 93 52 86 4.50 -70 8 05/10/2025 06:45 PM
40225 -- 3.95 0 95 51 88 5.10 -71 9 05/10/2025 06:30 PM
40224 -- 3.95 0 96 51 90 5.10 -68 9 05/10/2025 06:15 PM
40223 -- 3.95 0 97 51 90 5.10 -70 8 05/10/2025 06:01 PM
40222 -- 3.95 0 99 50 90 5.10 -68 9 05/10/2025 05:45 PM
40221 16.5 3.96 0 101 49 93 5.10 -68 8 05/10/2025 05:30 PM
40220 16.5 3.95 0 103 49 95 5.10 -70 8 05/10/2025 05:15 PM
40219 -- 4.12 0 105 47 93 5.10 -67 8 05/10/2025 05:00 PM
40218 16.6 3.96 0 107 46 99 5.10 -68 8 05/10/2025 04:45 PM
40217 16.5 3.96 0 107 45 97 5.10 -69 8 05/10/2025 04:30 PM
40216 16.5 3.96 0 107 44 100 5.10 -68 8 05/10/2025 04:15 PM
40215 -- 3.96 0 107 42 102 5.10 -67 8 05/10/2025 04:00 PM
40214 -- 3.96 0 104 44 99 5.10 -68 8 05/10/2025 03:45 PM
40213 -- 3.95 0 104 43 96 5.10 -69 8 05/10/2025 03:31 PM
40212 -- 4.12 0 103 42 92 5.10 -69 8 05/10/2025 03:15 PM
40211 -- 3.96 0 103 42 92 5.10 -68 8 05/10/2025 03:00 PM
40210 -- 3.96 0 103 41 96 5.10 -69 8 05/10/2025 02:45 PM
40209 16.5 3.96 0 102 41 93 5.10 -69 8 05/10/2025 02:30 PM
40208 16.5 3.96 0 101 41 93 5.10 -70 8 05/10/2025 02:15 PM
40207 16.5 3.95 0 100 41 90 5.10 -69 8 05/10/2025 02:00 PM
40206 16.5 3.95 0 100 40 93 5.10 -69 8 05/10/2025 01:45 PM
40205 16.5 3.95 0 99 40 94 5.20 -68 8 05/10/2025 01:30 PM